Date String (YYYY-MM-DD hh:mm:ss) UTC,Instrument flags,Ambient pressure (hPa),Sample flow (lpm),Bypass flow (lpm),Sample temperature (°C),Ambient temperature (°C),ASC tube jacket temperature (°C),LED temperature (°C),Box temperature (°C),Sample RH (%),Span deviation,Mass concentration (μg/m³),Mass concentration (μg/m³),Mass concentration (μg/m³)
DateTimeUTC,F1_M11,P_M11,Q1_M11,Q2_M11,T1_M11,T2_M11,T3_M11,T4_M11,T5_M11,U1_M11,ZSPAN_M11,X0_M11,X2_M11,X1_M11
2022-10-04 22:00:00,,0829.5,5.01,0.00,23.9,21.4,00.0,32.6,25.2,34.6,-003.1,0010.61,0007.70,0007.32
2022-10-04 22:01:00,,0829.5,4.99,0.00,23.9,21.6,00.0,32.6,25.3,34.1,-003.0,0011.01,0007.70,0007.31
2022-10-04 22:02:00,,0829.5,5.00,0.00,23.9,21.9,00.0,32.6,25.4,33.9,-003.0,0011.81,0007.69,0007.30
2022-10-04 22:03:00,,0829.4,5.00,0.00,23.9,22.2,00.0,32.6,25.5,34.2,-002.7,0012.20,0007.67,0007.26
2022-10-04 22:04:00,,0829.5,5.01,0.00,24.0,22.5,00.0,32.6,25.6,34.7,-002.4,0012.12,0007.59,0007.22
2022-10-04 22:05:00,,0829.5,4.99,0.00,24.0,22.7,00.0,32.6,25.7,34.3,-002.5,0012.33,0007.55,0007.21
2022-10-04 22:06:00,,0829.5,4.99,0.00,24.1,22.9,00.0,32.6,25.8,34.0,-002.7,0012.34,0007.52,0007.19
2022-10-04 22:07:00,,0829.5,5.01,0.00,24.1,23.0,00.0,32.6,25.9,33.7,-002.8,0013.19,0007.49,0007.17
2022-10-04 22:08:00,,0829.5,5.00,0.00,24.2,23.1,00.0,32.7,25.9,33.6,-003.5,0013.21,0007.48,0007.17
2022-10-04 22:09:00,,0829.5,5.00,0.00,24.2,23.2,00.0,32.7,26.0,33.6,-003.4,0013.19,0007.49,0007.18
2022-10-04 22:10:00,,0829.5,5.01,0.00,24.2,23.3,00.0,32.7,26.0,33.5,-003.1,0013.61,0007.53,0007.19
2022-10-04 22:11:00,,0829.5,5.00,0.00,24.3,23.5,00.0,32.8,26.1,32.8,-002.6,0013.74,0007.61,0007.24
2022-10-04 22:12:00,,0829.6,4.99,0.00,24.4,23.6,00.0,32.8,26.2,32.6,-002.6,0013.69,0007.65,0007.29
2022-10-04 22:13:00,,0829.6,5.00,0.00,24.4,23.7,00.0,32.8,26.3,32.4,-002.7,0012.71,0007.68,0007.35
2022-10-04 22:14:00,,0829.6,5.00,0.00,24.5,23.8,00.0,32.9,26.4,32.3,-003.0,0012.46,0007.74,0007.42
2022-10-04 22:15:00,,0829.6,5.00,0.00,24.6,23.9,00.0,32.9,26.5,32.1,-003.4,0012.43,0007.84,0007.52
2022-10-04 22:16:00,,0829.5,5.00,0.00,24.6,24.0,00.0,33.0,26.5,32.1,-003.3,0012.90,0007.95,0007.61
2022-10-04 22:17:00,,0829.5,5.00,0.00,24.6,24.0,00.0,33.0,26.6,32.1,-003.1,0013.03,0008.07,0007.71
2022-10-04 22:18:00,,0829.5,5.00,0.00,24.7,24.1,00.0,33.1,26.6,31.8,-002.6,0012.30,0008.14,0007.80
2022-10-04 22:19:00,,0829.4,5.01,0.00,24.8,24.1,00.0,33.1,26.7,32.3,-002.3,0012.29,0008.21,0007.86
2022-10-04 22:20:00,,0829.5,5.00,0.00,24.8,24.2,00.0,33.2,26.7,32.6,-002.5,0012.42,0008.24,0007.87
2022-10-04 22:21:00,,0829.6,5.00,0.00,24.9,24.2,00.0,33.2,26.8,32.2,-002.6,0012.17,0008.25,0007.89
2022-10-04 22:22:00,,0829.6,5.00,0.00,24.9,24.3,00.0,33.2,26.9,31.7,-002.9,0012.00,0008.23,0007.90
2022-10-04 22:23:00,,0829.6,4.99,0.00,25.0,24.4,00.0,33.3,26.9,31.4,-002.9,0012.14,0008.22,0007.88
2022-10-04 22:24:00,,0829.6,5.00,0.00,25.0,24.4,00.0,33.3,27.0,31.4,-002.6,0012.50,0008.23,0007.87
2022-10-04 22:25:00,,0829.5,4.99,0.00,25.1,24.5,00.0,33.4,27.1,31.7,-002.4,0012.47,0008.20,0007.83
2022-10-04 22:26:00,,0829.5,5.01,0.00,25.1,24.5,00.0,33.4,27.1,31.3,-001.9,0012.56,0008.18,0007.81
2022-10-04 22:27:00,,0829.5,4.99,0.00,25.2,24.6,00.0,33.5,27.1,31.0,-001.7,0012.45,0008.20,0007.82
2022-10-04 22:28:00,,0829.6,4.99,0.00,25.2,24.6,00.0,33.5,27.2,30.8,-001.9,0012.33,0008.20,0007.82
2022-10-04 22:29:00,,0829.6,5.03,0.00,25.2,24.6,00.0,33.6,27.2,31.0,-001.6,0012.22,0008.18,0007.82
2022-10-04 22:30:00,,0829.6,4.99,0.00,25.3,24.6,00.0,33.6,27.3,31.4,-001.7,0012.15,0008.17,0007.81
2022-10-04 22:31:00,,0829.6,5.00,0.00,25.3,24.7,00.0,33.7,27.3,31.5,-001.4,0012.08,0008.17,0007.83
2022-10-04 22:32:00,,0829.6,5.01,0.00,25.4,24.7,00.0,33.7,27.4,31.0,-001.5,0012.00,0008.16,0007.83
2022-10-04 22:33:00,,0829.6,4.99,0.00,25.4,24.8,00.0,33.8,27.4,30.7,-001.2,0012.05,0008.16,0007.83
2022-10-04 22:34:00,,0829.6,5.01,0.00,25.5,24.8,00.0,33.8,27.4,30.7,-001.2,0011.85,0008.17,0007.85
2022-10-04 22:35:00,,0829.6,4.99,0.00,25.5,24.8,00.0,33.9,27.5,30.5,-001.5,0011.85,0008.18,0007.86
2022-10-04 22:36:00,,0829.5,5.00,0.00,25.5,24.9,00.0,33.9,27.5,30.5,-001.6,0012.18,0008.16,0007.85
2022-10-04 22:37:00,,0829.5,5.01,0.00,25.6,24.9,00.0,33.9,27.6,30.4,-001.8,0012.07,0008.14,0007.82
2022-10-04 22:38:00,,0829.5,4.99,0.00,25.6,24.9,00.0,34.0,27.6,30.2,-002.2,0011.59,0008.08,0007.78
2022-10-04 22:39:00,,0829.5,5.00,0.00,25.6,25.0,00.0,34.0,27.6,30.2,-002.2,0011.57,0008.01,0007.71
2022-10-04 22:40:00,,0829.5,5.01,0.00,25.7,25.0,00.0,34.1,27.7,30.1,-002.6,0011.61,0007.99,0007.66
2022-10-04 22:41:00,,0829.5,4.99,0.00,25.7,25.0,00.0,34.1,27.7,30.3,-002.6,0011.66,0007.98,0007.62
2022-10-04 22:42:00,,0829.6,5.00,0.00,25.7,25.1,00.0,34.1,27.7,30.3,-002.7,0011.69,0007.99,0007.61
2022-10-04 22:43:00,,0829.6,5.02,0.00,25.8,25.1,00.0,34.2,27.8,30.1,-002.6,0011.70,0007.99,0007.60
2022-10-04 22:44:00,,0829.6,4.99,0.00,25.8,25.1,00.0,34.2,27.8,29.9,-002.8,0011.75,0008.00,0007.59
2022-10-04 22:45:00,,0829.6,5.00,0.00,25.8,25.1,00.0,34.3,27.8,29.9,-002.7,0011.73,0008.00,0007.56
2022-10-04 22:46:00,,0829.6,5.01,0.00,25.9,25.1,00.0,34.3,27.9,29.9,-002.6,0011.37,0008.00,0007.56
2022-10-04 22:47:00,,0829.6,4.99,0.00,25.9,25.2,00.0,34.3,27.9,29.9,-002.4,0011.07,0008.05,0007.61
2022-10-04 22:48:00,,0829.6,5.01,0.00,26.0,25.2,00.0,34.4,27.9,29.7,-002.6,0011.12,0008.07,0007.66
2022-10-04 22:49:00,,0829.5,4.99,0.00,26.0,25.3,00.0,34.4,28.0,29.6,-002.3,0011.26,0008.11,0007.70
2022-10-04 22:50:00,,0829.6,5.00,0.00,26.0,25.3,00.0,34.4,28.0,29.5,-002.2,0011.32,0008.16,0007.75
2022-10-04 22:51:00,,0829.6,5.01,0.00,26.0,25.3,00.0,34.5,28.0,29.8,-002.1,0011.69,0008.15,0007.76
2022-10-04 22:52:00,,0829.6,4.99,0.00,26.1,25.3,00.0,34.5,28.1,30.1,-002.1,0011.90,0008.16,0007.77
2022-10-04 22:53:00,,0829.6,5.01,0.00,26.1,25.4,00.0,34.5,28.1,30.3,-002.2,0011.90,0008.15,0007.76
2022-10-04 22:54:00,,0829.6,5.00,0.00,26.1,25.4,00.0,34.6,28.1,29.8,-002.6,0011.95,0008.17,0007.78
2022-10-04 22:55:00,,0829.6,4.99,0.00,26.2,25.5,00.0,34.6,28.2,29.7,-002.7,0011.96,0008.19,0007.78
2022-10-04 22:56:00,,0829.6,5.01,0.00,26.2,25.5,00.0,34.7,28.2,29.5,-002.8,0011.89,0008.21,0007.83
2022-10-04 22:57:00,,0829.6,4.99,0.00,26.2,25.5,00.0,34.7,28.2,29.4,-002.9,0012.04,0008.27,0007.88
2022-10-04 22:58:00,,0829.6,5.00,0.00,26.3,25.5,00.0,34.7,28.3,29.7,-003.0,0012.14,0008.30,0007.89
2022-10-04 22:59:00,,0829.5,5.01,0.00,26.3,25.5,00.0,34.8,28.3,29.9,-003.1,0012.05,0008.29,0007.87
